Time,TemperatureF,DewpointF,PressureIn,WindDirection,WindDirectionDegrees,WindSpeedMPH,WindSpeedGustMPH,Humidity,HourlyPrecipIn,Conditions,Clouds,dailyrainin,SoftwareType,DateUTC
2013-01-06 00:04:00,26.6,19.4,29.18,ESE,119,5.0,5.0,74,0.00,,,0.00,Wunderground v.1.15,2013-01-06 09:04:00,
2013-01-06 00:09:00,26.6,20.1,29.18,ESE,121,3.0,3.0,76,0.00,,,0.00,Wunderground v.1.15,2013-01-06 09:09:00,
2013-01-06 00:20:00,27.0,21.7,29.18,ESE,119,4.0,4.0,80,0.00,,,0.00,Wunderground v.1.15,2013-01-06 09:20:00,
2013-01-06 00:30:00,27.0,21.9,29.18,East,80,6.0,6.0,81,0.00,,,0.00,Wunderground v.1.15,2013-01-06 09:30:00,
2013-01-06 00:35:00,26.0,21.5,29.18,East,95,4.0,6.0,83,0.00,,,0.00,Wunderground v.1.15,2013-01-06 09:35:00,
2013-01-06 00:40:00,26.0,21.5,29.18,East,95,2.0,2.0,83,0.00,,,0.00,Wunderground v.1.15,2013-01-06 09:40:00,
2013-01-06 00:50:00,25.7,21.8,29.18,ESE,108,5.0,5.0,85,0.00,,,0.00,Wunderground v.1.15,2013-01-06 09:50:00,
2013-01-06 01:00:00,25.8,22.5,29.18,ESE,105,4.0,6.0,87,0.00,,,0.00,Wunderground v.1.15,2013-01-06 10:00:00,
2013-01-06 01:05:00,25.8,22.5,29.18,ESE,105,6.0,6.0,87,0.00,,,0.00,Wunderground v.1.15,2013-01-06 10:05:00,
2013-01-06 01:10:00,26.1,22.8,29.18,East,101,5.0,5.0,87,0.00,,,0.00,Wunderground v.1.15,2013-01-06 10:10:00,
2013-01-06 01:15:00,26.1,22.8,29.17,ESE,121,4.0,5.0,87,0.00,,,0.00,Wunderground v.1.15,2013-01-06 10:15:00,
2013-01-06 01:25:00,26.1,23.0,29.17,ESE,121,1.0,5.0,88,0.00,,,0.00,Wunderground v.1.15,2013-01-06 10:25:00,
2013-01-06 01:30:00,26.1,23.0,29.17,ESE,121,2.0,2.0,88,0.00,,,0.00,Wunderground v.1.15,2013-01-06 10:30:00,
2013-01-06 01:35:00,26.3,23.5,29.17,ESE,121,1.0,2.0,89,0.00,,,0.00,Wunderground v.1.15,2013-01-06 10:35:00,
2013-01-06 01:40:00,26.4,23.6,29.17,ESE,121,1.0,1.0,89,0.00,,,0.00,Wunderground v.1.15,2013-01-06 10:40:00,
2013-01-06 01:50:00,26.6,23.8,29.17,ESE,121,0.0,0.0,89,0.00,,,0.00,Wunderground v.1.15,2013-01-06 10:50:00,
2013-01-06 02:00:00,26.3,23.5,29.17,ESE,121,0.0,0.0,89,0.00,,,0.00,Wunderground v.1.15,2013-01-06 11:00:00,
2013-01-06 02:10:00,26.1,23.6,29.17,ESE,121,0.0,0.0,90,0.00,,,0.00,Wunderground v.1.15,2013-01-06 11:10:00,
2013-01-06 02:15:00,26.3,23.8,29.17,ESE,121,1.0,2.0,90,0.00,,,0.00,Wunderground v.1.15,2013-01-06 11:15:00,
2013-01-06 02:20:00,26.3,23.8,29.17,ESE,121,1.0,2.0,90,0.00,,,0.00,Wunderground v.1.15,2013-01-06 11:20:00,
2013-01-06 02:25:00,26.3,23.8,29.17,ESE,121,1.0,2.0,90,0.00,,,0.00,Wunderground v.1.15,2013-01-06 11:25:00,
2013-01-06 02:35:00,26.3,23.8,29.17,ESE,118,1.0,1.0,90,0.00,,,0.00,Wunderground v.1.15,2013-01-06 11:35:00,
2013-01-06 02:45:00,26.4,23.9,29.17,ESE,119,0.0,0.0,90,0.00,,,0.00,Wunderground v.1.15,2013-01-06 11:45:00,
2013-01-06 02:55:00,26.4,24.1,29.17,ESE,118,0.0,1.0,91,0.00,,,0.00,Wunderground v.1.15,2013-01-06 11:55:00,
2013-01-06 03:05:00,26.4,24.1,29.16,ESE,118,0.0,1.0,91,0.00,,,0.00,Wunderground v.1.15,2013-01-06 12:05:00,
2013-01-06 03:10:00,26.4,24.1,29.16,ESE,118,1.0,1.0,91,0.00,,,0.00,Wunderground v.1.15,2013-01-06 12:10:00,
2013-01-06 03:15:00,26.3,24.0,29.16,ESE,118,0.0,1.0,91,0.00,,,0.00,Wunderground v.1.15,2013-01-06 12:15:00,
2013-01-06 03:25:00,26.1,23.8,29.16,ESE,119,0.0,1.0,91,0.00,,,0.00,Wunderground v.1.15,2013-01-06 12:25:00,
2013-01-06 03:35:00,25.8,23.8,29.17,SE,146,0.0,1.0,92,0.00,,,0.00,Wunderground v.1.15,2013-01-06 12:35:00,
2013-01-06 03:40:00,25.7,23.7,29.17,SE,146,1.0,2.0,92,0.00,,,0.00,Wunderground v.1.15,2013-01-06 12:40:00,
2013-01-06 03:50:00,25.3,23.6,29.17,SSE,156,1.0,1.0,93,0.00,,,0.00,Wunderground v.1.15,2013-01-06 12:50:00,
2013-01-06 04:00:00,25.0,23.3,29.17,SSE,156,2.0,2.0,93,0.00,,,0.00,Wunderground v.1.15,2013-01-06 13:00:00,
2013-01-06 04:05:00,25.0,23.3,29.17,SSE,156,1.0,2.0,93,0.00,,,0.00,Wunderground v.1.15,2013-01-06 13:05:00,
2013-01-06 04:10:00,24.8,23.1,29.17,South,184,3.0,4.0,93,0.00,,,0.00,Wunderground v.1.15,2013-01-06 13:10:00,
2013-01-06 04:20:00,24.7,23.0,29.17,South,177,7.0,10.0,93,0.00,,,0.00,Wunderground v.1.15,2013-01-06 13:20:00,
2013-01-06 04:30:00,24.7,22.7,29.17,South,176,9.0,9.0,92,0.00,,,0.00,Wunderground v.1.15,2013-01-06 13:30:00,
2013-01-06 04:35:00,24.5,22.5,29.17,South,173,4.0,9.0,92,0.00,,,0.00,Wunderground v.1.15,2013-01-06 13:35:00,
2013-01-06 04:45:00,24.2,22.2,29.17,South,176,2.0,5.0,92,0.00,,,0.00,Wunderground v.1.15,2013-01-06 13:45:00,
2013-01-06 04:50:00,24.2,22.2,29.17,South,176,2.0,2.0,92,0.00,,,0.00,Wunderground v.1.15,2013-01-06 13:50:00,
2013-01-06 04:55:00,24.1,22.1,29.17,South,176,2.0,2.0,92,0.00,,,0.00,Wunderground v.1.15,2013-01-06 13:55:00,
2013-01-06 05:05:00,23.9,21.9,29.17,South,176,2.0,3.0,92,0.00,,,0.00,Wunderground v.1.15,2013-01-06 14:05:00,
2013-01-06 05:15:00,23.9,21.9,29.17,South,176,3.0,6.0,92,0.00,,,0.00,Wunderground v.1.15,2013-01-06 14:15:00,
2013-01-06 05:25:00,23.9,21.9,29.17,South,176,2.0,2.0,92,0.00,,,0.00,Wunderground v.1.15,2013-01-06 14:25:00,
2013-01-06 05:30:00,24.2,22.2,29.17,SSE,156,3.0,5.0,92,0.00,,,0.00,Wunderground v.1.15,2013-01-06 14:30:00,
2013-01-06 05:35:00,24.4,22.4,29.17,SSE,150,5.0,5.0,92,0.00,,,0.00,Wunderground v.1.15,2013-01-06 14:35:00,
2013-01-06 05:45:00,24.4,22.4,29.16,SE,146,4.0,5.0,92,0.00,,,0.00,Wunderground v.1.15,2013-01-06 14:45:00,
2013-01-06 05:50:00,24.4,22.4,29.16,SE,146,4.0,5.0,92,0.00,,,0.00,Wunderground v.1.15,2013-01-06 14:50:00,
2013-01-06 05:55:00,24.2,22.0,29.16,SE,146,0.0,5.0,91,0.00,,,0.00,Wunderground v.1.15,2013-01-06 14:55:00,
2013-01-06 06:05:00,24.4,22.2,29.16,SE,146,2.0,3.0,91,0.00,,,0.00,Wunderground v.1.15,2013-01-06 15:05:00,
2013-01-06 06:10:00,24.4,22.2,29.16,SE,146,2.0,2.0,91,0.00,,,0.00,Wunderground v.1.15,2013-01-06 15:10:00,
2013-01-06 06:20:00,24.4,22.2,29.16,SE,146,2.0,2.0,91,0.00,,,0.00,Wunderground v.1.15,2013-01-06 15:20:00,
2013-01-06 06:25:00,24.2,22.0,29.16,SE,146,1.0,2.0,91,0.00,,,0.00,Wunderground v.1.15,2013-01-06 15:25:00,
2013-01-06 06:35:00,24.1,21.9,29.17,SE,146,0.0,0.0,91,0.00,,,0.00,Wunderground v.1.15,2013-01-06 15:35:00,
2013-01-06 06:45:00,24.1,22.1,29.16,SE,146,1.0,2.0,92,0.00,,,0.00,Wunderground v.1.15,2013-01-06 15:45:00,
2013-01-06 06:50:00,24.1,21.9,29.16,SE,146,1.0,2.0,91,0.00,,,0.00,Wunderground v.1.15,2013-01-06 15:50:00,
2013-01-06 07:00:00,24.2,22.0,29.16,SE,146,3.0,3.0,91,0.00,,,0.00,Wunderground v.1.15,2013-01-06 16:00:00,
2013-01-06 07:05:00,24.1,21.9,29.16,SSE,155,3.0,3.0,91,0.00,,,0.00,Wunderground v.1.15,2013-01-06 16:05:00,
2013-01-06 07:15:00,23.9,21.7,29.16,SSE,155,2.0,3.0,91,0.00,,,0.00,Wunderground v.1.15,2013-01-06 16:15:00,
2013-01-06 07:20:00,23.8,21.6,29.16,SSE,155,2.0,2.0,91,0.00,,,0.00,Wunderground v.1.15,2013-01-06 16:20:00,
2013-01-06 07:30:00,23.6,21.4,29.17,SSE,155,2.0,5.0,91,0.00,,,0.00,Wunderground v.1.15,2013-01-06 16:30:00,
2013-01-06 07:40:00,23.5,21.3,29.17,SSE,155,1.0,2.0,91,0.00,,,0.00,Wunderground v.1.15,2013-01-06 16:40:00,
2013-01-06 07:45:00,23.0,20.5,29.17,SSE,155,2.0,2.0,90,0.00,,,0.00,Wunderground v.1.15,2013-01-06 16:45:00,
2013-01-06 07:55:00,22.9,20.4,29.17,SSE,156,3.0,3.0,90,0.00,,,0.00,Wunderground v.1.15,2013-01-06 16:55:00,
2013-01-06 08:05:00,22.7,20.2,29.16,SSE,156,2.0,3.0,90,0.00,,,0.00,Wunderground v.1.15,2013-01-06 17:05:00,
2013-01-06 08:10:00,22.1,19.6,29.16,SSE,156,2.0,2.0,90,0.00,,,0.00,Wunderground v.1.15,2013-01-06 17:10:00,
2013-01-06 08:15:00,21.8,19.3,29.17,SSE,156,2.0,2.0,90,0.00,,,0.00,Wunderground v.1.15,2013-01-06 17:15:00,
2013-01-06 08:25:00,21.4,18.9,29.17,SSE,156,0.0,3.0,90,0.00,,,0.00,Wunderground v.1.15,2013-01-06 17:25:00,
2013-01-06 08:30:00,21.3,18.8,29.17,SSE,156,0.0,0.0,90,0.00,,,0.00,Wunderground v.1.15,2013-01-06 17:30:00,
2013-01-06 08:40:00,20.0,17.5,29.17,SSE,156,0.0,0.0,90,0.00,,,0.00,Wunderground v.1.15,2013-01-06 17:40:00,
2013-01-06 08:50:00,20.2,18.2,29.17,SSE,156,1.0,3.0,92,0.00,,,0.00,Wunderground v.1.15,2013-01-06 17:50:00,
2013-01-06 09:00:00,21.1,18.9,29.17,SSE,156,0.0,0.0,91,0.00,,,0.00,Wunderground v.1.15,2013-01-06 18:00:00,
2013-01-06 09:05:00,21.3,19.1,29.17,SSE,156,0.0,0.0,91,0.00,,,0.00,Wunderground v.1.15,2013-01-06 18:05:00,
2013-01-06 09:10:00,21.6,19.6,29.17,SSE,156,0.0,0.0,92,0.00,,,0.00,Wunderground v.1.15,2013-01-06 18:10:00,
2013-01-06 09:20:00,21.8,19.6,29.17,SSE,156,0.0,0.0,91,0.00,,,0.00,Wunderground v.1.15,2013-01-06 18:20:00,
2013-01-06 09:30:00,21.4,19.2,29.17,SSE,156,0.0,0.0,91,0.00,,,0.00,Wunderground v.1.15,2013-01-06 18:30:00,
2013-01-06 09:35:00,21.4,19.2,29.17,SSE,156,0.0,0.0,91,0.00,,,0.00,Wunderground v.1.15,2013-01-06 18:35:00,
2013-01-06 09:40:00,21.4,19.2,29.17,SSE,156,0.0,0.0,91,0.00,,,0.00,Wunderground v.1.15,2013-01-06 18:40:00,
2013-01-06 09:50:00,22.2,20.2,29.17,SSE,148,4.0,5.0,92,0.00,,,0.00,Wunderground v.1.15,2013-01-06 18:50:00,
2013-01-06 09:55:00,22.9,20.9,29.17,SE,143,4.0,5.0,92,0.00,,,0.00,Wunderground v.1.15,2013-01-06 18:55:00,
2013-01-06 10:05:00,23.0,20.8,29.18,SE,138,2.0,4.0,91,0.00,,,0.00,Wunderground v.1.15,2013-01-06 19:05:00,
2013-01-06 10:10:00,23.0,20.8,29.18,SE,138,4.0,4.0,91,0.00,,,0.00,Wunderground v.1.15,2013-01-06 19:10:00,
2013-01-06 10:15:00,23.2,21.0,29.18,SE,138,2.0,4.0,91,0.00,,,0.00,Wunderground v.1.15,2013-01-06 19:15:00,
2013-01-06 10:25:00,23.3,21.1,29.18,SSE,153,4.0,4.0,91,0.00,,,0.00,Wunderground v.1.15,2013-01-06 19:25:00,
2013-01-06 10:35:00,23.3,21.1,29.18,SSE,156,5.0,5.0,91,0.00,,,0.00,Wunderground v.1.15,2013-01-06 19:35:00,
2013-01-06 10:40:00,23.3,21.1,29.18,SSE,155,4.0,4.0,91,0.00,,,0.00,Wunderground v.1.15,2013-01-06 19:40:00,
2013-01-06 10:55:00,23.3,21.3,29.18,SE,142,3.0,3.0,92,0.00,,,0.00,Wunderground v.1.15,2013-01-06 19:55:00,
2013-01-06 11:00:00,23.3,21.3,29.18,SSE,149,4.0,4.0,92,0.00,,,0.00,Wunderground v.1.15,2013-01-06 20:00:00,
2013-01-06 11:05:00,23.5,21.5,29.18,SSE,156,5.0,6.0,92,0.00,,,0.00,Wunderground v.1.15,2013-01-06 20:05:00,
2013-01-06 11:15:00,23.5,21.5,29.19,SSE,156,5.0,7.0,92,0.00,,,0.00,Wunderground v.1.15,2013-01-06 20:15:00,
2013-01-06 11:25:00,23.5,21.8,29.19,SSE,149,4.0,6.0,93,0.00,,,0.00,Wunderground v.1.15,2013-01-06 20:25:00,
2013-01-06 11:35:00,23.6,21.9,29.19,SSE,156,4.0,4.0,93,0.00,,,0.00,Wunderground v.1.15,2013-01-06 20:35:00,
2013-01-06 11:40:00,23.6,21.9,29.19,SSE,156,3.0,3.0,93,0.00,,,0.00,Wunderground v.1.15,2013-01-06 20:40:00,
2013-01-06 11:45:00,23.6,21.9,29.19,SSE,156,2.0,3.0,93,0.00,,,0.00,Wunderground v.1.15,2013-01-06 20:45:00,
2013-01-06 11:50:00,23.6,21.9,29.19,SSE,156,3.0,3.0,93,0.00,,,0.00,Wunderground v.1.15,2013-01-06 20:50:00,
2013-01-06 12:00:00,23.8,22.1,29.19,SSE,156,2.0,2.0,93,0.00,,,0.00,Wunderground v.1.15,2013-01-06 21:00:00,
2013-01-06 12:05:00,23.8,22.1,29.19,SSE,156,7.0,7.0,93,0.00,,,0.00,Wunderground v.1.15,2013-01-06 21:05:00,
2013-01-06 12:10:00,23.8,22.1,29.19,SSE,155,4.0,4.0,93,0.00,,,0.00,Wunderground v.1.15,2013-01-06 21:10:00,
2013-01-06 12:15:00,23.8,22.1,29.19,SSE,156,4.0,4.0,93,0.00,,,0.00,Wunderground v.1.15,2013-01-06 21:15:00,
2013-01-06 12:20:00,23.8,22.1,29.19,SSE,156,1.0,1.0,93,0.00,,,0.00,Wunderground v.1.15,2013-01-06 21:20:00,
2013-01-06 12:30:00,23.8,22.3,29.20,SE,135,5.0,5.0,94,0.00,,,0.00,Wunderground v.1.15,2013-01-06 21:30:00,
2013-01-06 12:40:00,23.8,22.3,29.20,SSE,156,5.0,5.0,94,0.00,,,0.00,Wunderground v.1.15,2013-01-06 21:40:00,
2013-01-06 12:45:00,23.8,22.3,29.20,SSE,155,4.0,5.0,94,0.00,,,0.00,Wunderground v.1.15,2013-01-06 21:45:00,
2013-01-06 12:55:00,23.8,22.3,29.20,SSE,156,8.0,8.0,94,0.00,,,0.00,Wunderground v.1.15,2013-01-06 21:55:00,
2013-01-06 13:05:00,23.8,22.6,29.20,SE,145,8.0,8.0,95,0.00,,,0.00,Wunderground v.1.15,2013-01-06 22:05:00,
2013-01-06 13:15:00,23.9,22.7,29.20,SSE,156,5.0,6.0,95,0.00,,,0.00,Wunderground v.1.15,2013-01-06 22:15:00,
2013-01-06 13:20:00,23.8,22.6,29.20,SSE,156,5.0,5.0,95,0.00,,,0.00,Wunderground v.1.15,2013-01-06 22:20:00,
2013-01-06 13:30:00,23.8,22.6,29.20,SSE,155,4.0,4.0,95,0.00,,,0.00,Wunderground v.1.15,2013-01-06 22:30:00,
2013-01-06 13:40:00,23.9,22.7,29.20,SSE,163,4.0,6.0,95,0.00,,,0.00,Wunderground v.1.15,2013-01-06 22:40:00,
2013-01-06 13:50:00,23.9,22.7,29.20,SE,142,3.0,3.0,95,0.00,,,0.00,Wunderground v.1.15,2013-01-06 22:50:00,
2013-01-06 13:55:00,23.9,22.7,29.20,SSE,153,6.0,7.0,95,0.00,,,0.00,Wunderground v.1.15,2013-01-06 22:55:00,
2013-01-06 14:05:00,23.9,22.7,29.20,SE,146,5.0,6.0,95,0.00,,,0.00,Wunderground v.1.15,2013-01-06 23:05:00,
2013-01-06 14:10:00,23.9,22.7,29.20,SE,146,4.0,4.0,95,0.00,,,0.00,Wunderground v.1.15,2013-01-06 23:10:00,
2013-01-06 14:20:00,23.9,22.7,29.20,SE,140,5.0,6.0,95,0.00,,,0.00,Wunderground v.1.15,2013-01-06 23:20:00,
2013-01-06 14:30:00,23.9,22.7,29.20,SSE,149,6.0,6.0,95,0.00,,,0.00,Wunderground v.1.15,2013-01-06 23:30:00,
2013-01-06 14:40:00,24.1,23.1,29.20,SSE,153,5.0,7.0,96,0.00,,,0.00,Wunderground v.1.15,2013-01-06 23:40:00,
2013-01-06 14:45:00,24.1,23.1,29.20,SSE,155,6.0,8.0,96,0.00,,,0.00,Wunderground v.1.15,2013-01-06 23:45:00,
2013-01-06 14:50:00,24.1,23.1,29.20,SSE,155,8.0,8.0,96,0.00,,,0.00,Wunderground v.1.15,2013-01-06 23:50:00,
2013-01-06 15:00:00,24.1,23.1,29.20,SSE,156,5.0,5.0,96,0.00,,,0.00,Wunderground v.1.15,2013-01-07 00:00:00,
2013-01-06 15:10:00,24.1,23.1,29.20,SSE,156,5.0,5.0,96,0.00,,,0.00,Wunderground v.1.15,2013-01-07 00:10:00,
2013-01-06 15:15:00,24.1,23.1,29.20,SSE,155,7.0,7.0,96,0.00,,,0.00,Wunderground v.1.15,2013-01-07 00:15:00,
2013-01-06 15:25:00,24.1,23.1,29.20,SSE,150,8.0,8.0,96,0.00,,,0.00,Wunderground v.1.15,2013-01-07 00:25:00,
2013-01-06 15:30:00,24.1,23.1,29.20,SSE,156,5.0,5.0,96,0.00,,,0.00,Wunderground v.1.15,2013-01-07 00:30:00,
2013-01-06 15:40:00,24.2,23.2,29.20,SSE,156,5.0,8.0,96,0.00,,,0.00,Wunderground v.1.15,2013-01-07 00:40:00,
2013-01-06 15:55:00,24.2,23.2,29.20,SSE,155,6.0,6.0,96,0.00,,,0.00,Wunderground v.1.15,2013-01-07 00:55:00,
2013-01-06 16:00:00,24.2,23.2,29.20,SSE,155,6.0,6.0,96,0.00,,,0.00,Wunderground v.1.15,2013-01-07 01:00:00,
2013-01-06 16:10:00,24.4,23.4,29.20,SE,142,6.0,6.0,96,0.00,,,0.00,Wunderground v.1.15,2013-01-07 01:10:00,
2013-01-06 16:20:00,24.4,23.4,29.20,SSE,149,5.0,5.0,96,0.00,,,0.00,Wunderground v.1.15,2013-01-07 01:20:00,
2013-01-06 16:25:00,24.4,23.4,29.20,SSE,148,6.0,6.0,96,0.00,,,0.00,Wunderground v.1.15,2013-01-07 01:25:00,
2013-01-06 16:35:00,24.4,23.4,29.21,SSE,148,4.0,5.0,96,0.00,,,0.00,Wunderground v.1.15,2013-01-07 01:35:00,
2013-01-06 16:40:00,24.4,23.4,29.21,SSE,150,4.0,5.0,96,0.00,,,0.00,Wunderground v.1.15,2013-01-07 01:40:00,
2013-01-06 16:45:00,24.4,23.4,29.21,SSE,155,4.0,5.0,96,0.00,,,0.00,Wunderground v.1.15,2013-01-07 01:45:00,
2013-01-06 16:55:00,24.5,23.5,29.21,SSE,156,4.0,5.0,96,0.00,,,0.00,Wunderground v.1.15,2013-01-07 01:55:00,
2013-01-06 17:05:00,24.7,23.7,29.21,SSE,156,5.0,5.0,96,0.00,,,0.00,Wunderground v.1.15,2013-01-07 02:05:00,
2013-01-06 17:10:00,24.5,23.5,29.21,SSE,155,3.0,4.0,96,0.00,,,0.00,Wunderground v.1.15,2013-01-07 02:10:00,
2013-01-06 17:20:00,24.5,23.5,29.21,SSE,156,4.0,4.0,96,0.00,,,0.00,Wunderground v.1.15,2013-01-07 02:20:00,
2013-01-06 17:30:00,24.7,23.7,29.21,SSE,150,5.0,5.0,96,0.00,,,0.00,Wunderground v.1.15,2013-01-07 02:30:00,
2013-01-06 17:35:00,24.5,23.5,29.21,SE,146,4.0,5.0,96,0.00,,,0.00,Wunderground v.1.15,2013-01-07 02:35:00,
2013-01-06 17:45:00,24.5,23.5,29.21,SSE,148,2.0,3.0,96,0.00,,,0.00,Wunderground v.1.15,2013-01-07 02:45:00,
2013-01-06 17:55:00,24.4,23.4,29.21,SE,145,3.0,3.0,96,0.00,,,0.00,Wunderground v.1.15,2013-01-07 02:55:00,
2013-01-06 18:00:00,24.4,23.4,29.21,SE,146,3.0,3.0,96,0.00,,,0.00,Wunderground v.1.15,2013-01-07 03:00:00,
2013-01-06 18:05:00,24.4,23.4,29.21,SSE,149,3.0,3.0,96,0.00,,,0.00,Wunderground v.1.15,2013-01-07 03:05:00,
2013-01-06 18:15:00,24.2,23.2,29.20,SSE,150,1.0,1.0,96,0.00,,,0.00,Wunderground v.1.15,2013-01-07 03:15:00,
2013-01-06 18:25:00,24.2,23.2,29.20,SSE,150,0.0,0.0,96,0.00,,,0.00,Wunderground v.1.15,2013-01-07 03:25:00,
2013-01-06 18:35:00,24.2,23.2,29.20,SSE,156,3.0,5.0,96,0.00,,,0.00,Wunderground v.1.15,2013-01-07 03:35:00,
2013-01-06 18:40:00,24.1,23.1,29.20,SSE,156,4.0,4.0,96,0.00,,,0.00,Wunderground v.1.15,2013-01-07 03:40:00,
2013-01-06 18:50:00,23.9,22.9,29.20,SSE,156,1.0,1.0,96,0.00,,,0.00,Wunderground v.1.15,2013-01-07 03:50:00,
2013-01-06 19:00:00,23.9,22.9,29.20,SSE,156,0.0,0.0,96,0.00,,,0.00,Wunderground v.1.15,2013-01-07 04:00:00,
2013-01-06 19:05:00,23.9,22.9,29.20,SSE,156,0.0,0.0,96,0.00,,,0.00,Wunderground v.1.15,2013-01-07 04:05:00,
2013-01-06 19:15:00,23.8,22.8,29.20,SSE,156,0.0,0.0,96,0.00,,,0.00,Wunderground v.1.15,2013-01-07 04:15:00,
2013-01-06 19:25:00,23.5,22.5,29.20,SSE,156,0.0,0.0,96,0.00,,,0.00,Wunderground v.1.15,2013-01-07 04:25:00,
2013-01-06 19:30:00,23.5,22.5,29.20,SSE,156,0.0,0.0,96,0.00,,,0.00,Wunderground v.1.15,2013-01-07 04:30:00,
2013-01-06 19:40:00,23.2,22.2,29.20,SSE,156,0.0,0.0,96,0.00,,,0.00,Wunderground v.1.15,2013-01-07 04:40:00,
2013-01-06 19:50:00,23.0,22.0,29.20,SSE,156,0.0,0.0,96,0.00,,,0.00,Wunderground v.1.15,2013-01-07 04:50:00,
2013-01-06 19:55:00,22.5,21.3,29.20,SSE,156,0.0,0.0,95,0.00,,,0.00,Wunderground v.1.15,2013-01-07 04:55:00,
2013-01-06 20:05:00,22.4,21.2,29.21,SSE,156,0.0,0.0,95,0.00,,,0.00,Wunderground v.1.15,2013-01-07 05:05:00,
2013-01-06 20:10:00,22.4,21.2,29.21,SSE,156,0.0,0.0,95,0.00,,,0.00,Wunderground v.1.15,2013-01-07 05:10:00,
2013-01-06 20:20:00,22.4,21.2,29.21,SSE,156,0.0,0.0,95,0.00,,,0.00,Wunderground v.1.15,2013-01-07 05:20:00,
2013-01-06 20:25:00,22.7,21.5,29.21,SSE,156,0.0,0.0,95,0.00,,,0.00,Wunderground v.1.15,2013-01-07 05:25:00,
2013-01-06 20:30:00,22.7,21.5,29.21,SSE,156,0.0,0.0,95,0.00,,,0.00,Wunderground v.1.15,2013-01-07 05:30:00,
2013-01-06 20:35:00,22.7,21.5,29.21,SSE,156,0.0,0.0,95,0.00,,,0.00,Wunderground v.1.15,2013-01-07 05:35:00,
2013-01-06 20:40:00,22.7,21.5,29.21,SSE,156,0.0,0.0,95,0.00,,,0.00,Wunderground v.1.15,2013-01-07 05:40:00,
2013-01-06 20:45:00,22.7,21.5,29.21,SSE,156,0.0,0.0,95,0.00,,,0.00,Wunderground v.1.15,2013-01-07 05:45:00,
2013-01-06 20:55:00,22.7,21.5,29.21,SSE,156,0.0,0.0,95,0.00,,,0.00,Wunderground v.1.15,2013-01-07 05:55:00,
2013-01-06 21:05:00,22.9,21.7,29.21,SSE,156,0.0,0.0,95,0.00,,,0.00,Wunderground v.1.15,2013-01-07 06:05:00,
2013-01-06 21:14:00,22.9,21.9,29.21,SSE,156,0.0,0.0,96,0.00,,,0.00,Wunderground v.1.15,2013-01-07 06:14:00,
2013-01-06 21:19:00,22.9,21.9,29.21,SSE,156,0.0,0.0,96,0.00,,,0.00,Wunderground v.1.15,2013-01-07 06:19:00,
2013-01-06 21:29:00,22.9,21.7,29.21,SSE,156,0.0,0.0,95,0.00,,,0.00,Wunderground v.1.15,2013-01-07 06:29:00,
2013-01-06 21:34:00,22.9,21.7,29.21,SSE,156,1.0,1.0,95,0.00,,,0.00,Wunderground v.1.15,2013-01-07 06:34:00,
2013-01-06 21:44:00,22.9,21.7,29.21,SSE,156,1.0,2.0,95,0.00,,,0.00,Wunderground v.1.15,2013-01-07 06:44:00,
2013-01-06 21:49:00,22.9,21.7,29.21,SSE,156,1.0,1.0,95,0.00,,,0.00,Wunderground v.1.15,2013-01-07 06:49:00,
2013-01-06 21:59:00,22.7,21.5,29.21,SSE,156,0.0,0.0,95,0.00,,,0.00,Wunderground v.1.15,2013-01-07 06:59:00,
2013-01-06 22:04:00,22.7,21.5,29.21,SSE,156,0.0,0.0,95,0.00,,,0.00,Wunderground v.1.15,2013-01-07 07:04:00,
2013-01-06 22:10:00,22.7,21.5,29.21,SSE,156,0.0,0.0,95,0.00,,,0.00,Wunderground v.1.15,2013-01-07 07:10:00,
2013-01-06 22:20:00,22.7,21.5,29.21,SSE,156,0.0,0.0,95,0.00,,,0.00,Wunderground v.1.15,2013-01-07 07:20:00,
2013-01-06 22:25:00,22.7,21.5,29.21,SSE,156,0.0,0.0,95,0.00,,,0.00,Wunderground v.1.15,2013-01-07 07:25:00,
2013-01-06 22:31:00,-999.9,-99.9,29.21,North,32767,-999.0,0.0,255,-99.99,,,0.00,Wunderground v.1.15,2013-01-07 07:31:00,
2013-01-06 22:40:00,-999.9,-99.9,29.21,North,32767,-999.0,0.0,255,-99.99,,,0.00,Wunderground v.1.15,2013-01-07 07:40:00,
2013-01-06 22:50:00,-999.9,-99.9,29.22,North,32767,-999.0,0.0,255,-99.99,,,0.00,Wunderground v.1.15,2013-01-07 07:50:00,
2013-01-06 23:00:00,-999.9,-99.9,29.21,North,32767,-999.0,0.0,255,-99.99,,,0.00,Wunderground v.1.15,2013-01-07 08:00:00,
2013-01-06 23:10:00,-999.9,-99.9,29.21,North,32767,-999.0,0.0,255,-99.99,,,0.00,Wunderground v.1.15,2013-01-07 08:10:00,
2013-01-06 23:20:00,22.5,21.3,29.21,SSE,156,0.0,0.0,95,0.00,,,0.00,Wunderground v.1.15,2013-01-07 08:20:00,
2013-01-06 23:25:00,22.4,21.2,29.21,SSE,156,0.0,0.0,95,0.00,,,0.00,Wunderground v.1.15,2013-01-07 08:25:00,
2013-01-06 23:35:00,22.2,21.0,29.22,SSE,156,0.0,0.0,95,0.00,,,0.00,Wunderground v.1.15,2013-01-07 08:35:00,
2013-01-06 23:45:00,22.2,21.0,29.22,SSE,156,0.0,0.0,95,0.00,,,0.00,Wunderground v.1.15,2013-01-07 08:45:00,
2013-01-06 23:50:00,22.1,20.9,29.22,SSE,156,0.0,0.0,95,0.00,,,0.00,Wunderground v.1.15,2013-01-07 08:50:00,
2013-01-06 23:55:00,22.2,21.0,29.22,SSE,156,0.0,0.0,95,0.00,,,0.00,Wunderground v.1.15,2013-01-07 08:55:00,